TimeCST,TemperatureF,Dew PointF,Humidity,Sea Level PressureIn,VisibilityMPH,Wind Direction,Wind SpeedMPH,Gust SpeedMPH,PrecipitationIn,Events,Conditions,WindDirDegrees,DateUTC
12:15 AM,21.2,14.0,74,30.15,10.0,SSE,10.4,-,N/A,,Clear,150,2012-12-22 06:15:00
12:35 AM,19.4,12.2,74,30.15,10.0,SSE,9.2,-,N/A,,Clear,150,2012-12-22 06:35:00
12:55 AM,17.6,12.2,79,30.14,10.0,SSE,9.2,-,N/A,,Clear,150,2012-12-22 06:55:00
1:15 AM,17.6,12.2,79,30.13,10.0,SSE,9.2,-,N/A,,Clear,150,2012-12-22 07:15:00
1:35 AM,17.6,12.2,79,30.13,10.0,SSE,8.1,-,N/A,,Clear,150,2012-12-22 07:35:00
1:55 AM,17.6,12.2,79,30.13,10.0,SSE,9.2,-,N/A,,Clear,150,2012-12-22 07:55:00
2:15 AM,17.6,12.2,79,30.12,10.0,SE,9.2,-,N/A,,Clear,140,2012-12-22 08:15:00
2:35 AM,19.4,12.2,74,30.12,10.0,SSE,10.4,-,N/A,,Clear,150,2012-12-22 08:35:00
3:15 AM,17.6,12.2,79,30.10,10.0,SSE,9.2,-,N/A,,Clear,150,2012-12-22 09:15:00
3:35 AM,19.4,12.2,74,30.10,10.0,SE,9.2,-,N/A,,Clear,140,2012-12-22 09:35:00
3:55 AM,19.4,12.2,74,30.09,10.0,SSE,9.2,-,N/A,,Clear,150,2012-12-22 09:55:00
4:15 AM,19.4,12.2,74,30.09,10.0,SSE,9.2,-,N/A,,Clear,150,2012-12-22 10:15:00
4:35 AM,17.6,12.2,79,30.08,10.0,SSE,10.4,-,N/A,,Clear,150,2012-12-22 10:35:00
4:55 AM,19.4,12.2,74,30.06,10.0,SE,13.8,-,N/A,,Clear,140,2012-12-22 10:55:00
5:15 AM,17.6,12.2,79,30.05,10.0,SSE,10.4,-,N/A,,Clear,150,2012-12-22 11:15:00
5:35 AM,19.4,14.0,80,30.06,10.0,SSE,10.4,-,N/A,,Clear,160,2012-12-22 11:35:00
5:55 AM,19.4,14.0,80,30.04,10.0,North,-9999.0,-,N/A,,Clear,0,2012-12-22 11:55:00
6:15 AM,19.4,14.0,80,30.04,10.0,SSE,13.8,-,N/A,,Clear,160,2012-12-22 12:15:00
6:35 AM,19.4,14.0,80,30.04,10.0,SSE,13.8,-,N/A,,Clear,160,2012-12-22 12:35:00
6:55 AM,19.4,14.0,80,30.03,10.0,SSE,15.0,-,N/A,,Clear,160,2012-12-22 12:55:00
7:15 AM,19.4,14.0,80,30.04,10.0,SSE,12.7,-,N/A,,Clear,160,2012-12-22 13:15:00
7:35 AM,19.4,12.2,74,30.04,10.0,South,9.2,-,N/A,,Clear,170,2012-12-22 13:35:00
7:55 AM,17.6,12.2,79,30.03,10.0,SSE,9.2,-,N/A,,Clear,160,2012-12-22 13:55:00
8:15 AM,19.4,14.0,80,30.02,10.0,SSE,11.5,-,N/A,,Clear,160,2012-12-22 14:15:00
8:35 AM,19.4,14.0,80,30.01,10.0,SSE,12.7,-,N/A,,Clear,150,2012-12-22 14:35:00
8:55 AM,21.2,14.0,74,30.00,10.0,SSE,12.7,-,N/A,,Clear,150,2012-12-22 14:55:00
9:15 AM,21.2,14.0,74,30.00,10.0,SSE,10.4,-,N/A,,Clear,160,2012-12-22 15:15:00
9:35 AM,23.0,15.8,74,29.99,10.0,South,10.4,-,N/A,,Clear,170,2012-12-22 15:35:00
9:55 AM,24.8,15.8,69,29.99,10.0,South,8.1,-,N/A,,Clear,180,2012-12-22 15:55:00
10:15 AM,24.8,17.6,74,29.99,10.0,Calm,Calm,-,N/A,,Clear,0,2012-12-22 16:15:00
10:35 AM,26.6,17.6,69,29.99,10.0,Variable,3.5,-,N/A,,Clear,0,2012-12-22 16:35:00
10:55 AM,28.4,19.4,69,29.98,10.0,SSW,6.9,-,N/A,,Clear,210,2012-12-22 16:55:00
11:15 AM,30.2,19.4,64,29.97,10.0,SSW,11.5,-,N/A,,Unknown,200,2012-12-22 17:15:00
11:35 AM,30.2,19.4,64,29.96,10.0,SSW,10.4,-,N/A,,Clear,200,2012-12-22 17:35:00
11:55 AM,30.2,21.2,69,29.95,10.0,SSW,11.5,-,N/A,,Clear,210,2012-12-22 17:55:00
12:15 PM,30.2,21.2,69,29.94,10.0,SW,10.4,-,N/A,,Clear,220,2012-12-22 18:15:00
12:35 PM,30.2,21.2,69,29.93,10.0,SSW,6.9,-,N/A,,Clear,210,2012-12-22 18:35:00
12:55 PM,32.0,23.0,69,29.92,10.0,SW,8.1,-,N/A,,Clear,220,2012-12-22 18:55:00
1:15 PM,32.0,23.0,69,29.92,10.0,WSW,3.5,-,N/A,,Clear,250,2012-12-22 19:15:00
1:35 PM,33.8,23.0,65,29.92,10.0,North,-9999.0,-,N/A,,Clear,0,2012-12-22 19:35:00
1:55 PM,33.8,23.0,65,29.91,10.0,WSW,5.8,-,N/A,,Clear,250,2012-12-22 19:55:00
2:15 PM,33.8,24.8,70,29.91,10.0,WSW,6.9,-,N/A,,Clear,250,2012-12-22 20:15:00
2:35 PM,33.8,24.8,70,29.90,10.0,WSW,5.8,-,N/A,,Clear,250,2012-12-22 20:35:00
2:55 PM,35.6,24.8,65,29.89,10.0,North,-9999.0,-,N/A,,Clear,0,2012-12-22 20:55:00
3:15 PM,32.0,24.8,75,29.89,10.0,Calm,Calm,-,N/A,,Clear,0,2012-12-22 21:15:00
3:35 PM,32.0,24.8,75,29.91,10.0,WNW,5.8,-,N/A,,Clear,300,2012-12-22 21:35:00
3:55 PM,32.0,24.8,75,29.91,10.0,NNW,8.1,-,N/A,,Clear,330,2012-12-22 21:55:00